Tracking 22779 objects as of 12-Apr-2021
HD Live streaming from Space Station
objects crossing your sky now

STARLINK-61

Track STARLINK-61 now!
10-day predictions
STARLINK-61 is classified as:


NORAD ID: 44249
Int'l Code: 2019-029Q
Perigee: 506.5 km
Apogee: 514.8 km
Inclination: 53.0 °
Period: 94.7 minutes
Semi major axis: 6881 km
RCS: Unknown
Launch date: May 24, 2019
Source: United States (US)
Launch site: AIR FORCE EASTERN TEST RANGE (AFETR)
aabbcc
Your satellite tracking list
Your tracking list is empty




NASA's NSSDC Master Catalog

Two Line Element Set (TLE):
1 44249U 19029Q   21101.78303295  .00001704  00000-0  91017-4 0  9990
2 44249  52.9937 269.5940 0006059 190.8267 169.2598 15.20771404103632
Source of the keplerian elements: AFSPC